RYR3349 GCTS-LEMG

Flight info

Callsign RYR3349
Flight time N/A
Altitude 36000
Route KORAL UG5 SONSO DCT NIRAL UN871 ADUBI DCT VJF
Aircraft B738/M-SDFGILRWY/SB1

Departure

Time 2026-05-04 10:08
Airport Tenerife Sur Airport (GCTS)

Arrival

Time N/A
Airport Málaga-Costa del Sol Airport (LEMG)
Time Latitude Longitude Altitude Speed Heading
2026-05-04 09:46 28.04744 -16.57573 228 ft 0 kts 339°
2026-05-04 10:00 28.04676 -16.57524 231 ft 2 kts 270°
2026-05-04 10:00 28.04677 -16.57513 229 ft 0 kts 250°
2026-05-04 10:02 28.04680 -16.57505 228 ft 0 kts 247°
2026-05-04 10:04 28.04602 -16.57703 228 ft 6 kts 197°
2026-05-04 10:04 28.04539 -16.57685 227 ft 7 kts 158°
2026-05-04 10:04 28.04479 -16.57694 227 ft 10 kts 235°
2026-05-04 10:04 28.04439 -16.57805 227 ft 19 kts 249°
2026-05-04 10:05 28.04383 -16.57961 227 ft 23 kts 248°
2026-05-04 10:05 28.04319 -16.58146 227 ft 27 kts 248°
2026-05-04 10:05 28.04246 -16.58355 226 ft 28 kts 249°
2026-05-04 10:05 28.04186 -16.58547 226 ft 21 kts 255°
2026-05-04 10:06 28.04139 -16.58694 226 ft 20 kts 248°
2026-05-04 10:06 28.04088 -16.58839 226 ft 19 kts 248°
2026-05-04 10:06 28.04041 -16.58969 226 ft 11 kts 243°
2026-05-04 10:08 28.04262 -16.57787 227 ft 129 kts 69°
2026-05-04 10:08 28.04651 -16.56671 321 ft 168 kts 70°
2026-05-04 10:08 28.05059 -16.55477 1021 ft 166 kts 69°
2026-05-04 10:08 28.05473 -16.54249 1641 ft 171 kts 69°
2026-05-04 10:09 28.05913 -16.52951 2179 ft 187 kts 68°
2026-05-04 10:09 28.06411 -16.51528 2743 ft 203 kts 67°
2026-05-04 10:09 28.06958 -16.49968 3354 ft 220 kts 68°
2026-05-04 10:09 28.07533 -16.48312 3966 ft 237 kts 68°
2026-05-04 10:10 28.08150 -16.46531 4569 ft 252 kts 68°
2026-05-04 10:10 28.08725 -16.44582 5192 ft 268 kts 76°
2026-05-04 10:10 28.08991 -16.42472 5992 ft 277 kts 84°
2026-05-04 10:10 28.09103 -16.40294 6781 ft 284 kts 86°
2026-05-04 10:11 28.09205 -16.38024 7518 ft 294 kts 86°
2026-05-04 10:11 28.09337 -16.35711 8289 ft 300 kts 85°
2026-05-04 10:11 28.09496 -16.33347 9091 ft 306 kts 85°
2026-05-04 10:11 28.09669 -16.30944 9805 ft 313 kts 85°
2026-05-04 10:12 28.09854 -16.28443 10418 ft 325 kts 85°
2026-05-04 10:12 28.10043 -16.25864 10919 ft 339 kts 85°
2026-05-04 10:12 28.10243 -16.23133 11308 ft 357 kts 85°
2026-05-04 10:12 28.10453 -16.20237 11755 ft 373 kts 85°
2026-05-04 10:13 28.10667 -16.17268 12143 ft 389 kts 85°
2026-05-04 10:13 28.10890 -16.14158 12710 ft 399 kts 85°
2026-05-04 10:13 28.11113 -16.11033 13354 ft 406 kts 85°
2026-05-04 10:13 28.11342 -16.07826 14156 ft 407 kts 85°
2026-05-04 10:14 28.11564 -16.04636 14810 ft 413 kts 86°
2026-05-04 10:14 28.11691 -16.01380 15515 ft 416 kts 90°
2026-05-04 10:16 28.10109 -15.77840 19798 ft 446 kts 96°
2026-05-04 10:16 28.09860 -15.74292 20288 ft 453 kts 96°
2026-05-04 10:16 28.09611 -15.70702 20873 ft 457 kts 96°
2026-05-04 10:16 28.09364 -15.67092 21316 ft 464 kts 96°
2026-05-04 10:17 28.09116 -15.63460 21856 ft 468 kts 96°
2026-05-04 10:17 28.08867 -15.59802 22370 ft 471 kts 97°
2026-05-04 10:19 28.11919 -15.33722 25666 ft 502 kts 56°
2026-05-04 10:19 28.13876 -15.30502 26094 ft 504 kts 51°
2026-05-04 10:19 28.16021 -15.27337 26507 ft 507 kts 49°
2026-05-04 10:19 28.18218 -15.24185 26908 ft 511 kts 49°
2026-05-04 10:20 28.20400 -15.21007 27290 ft 515 kts 50°
2026-05-04 10:20 28.22559 -15.17757 27839 ft 515 kts 51°
2026-05-04 10:20 28.24651 -15.14488 28438 ft 514 kts 52°
2026-05-04 10:20 28.26700 -15.11188 28984 ft 513 kts 53°
2026-05-04 10:21 28.28726 -15.07851 29477 ft 513 kts 53°
2026-05-04 10:21 28.30726 -15.04511 29941 ft 513 kts 54°
2026-05-04 10:21 28.32719 -15.01157 30408 ft 513 kts 54°
2026-05-04 10:21 28.34709 -14.97795 30859 ft 514 kts 54°
2026-05-04 10:22 28.38667 -14.91093 31790 ft 512 kts 54°
2026-05-04 10:22 28.40664 -14.87710 32155 ft 513 kts 54°
2026-05-04 10:22 28.42637 -14.84367 32580 ft 512 kts 53°
2026-05-04 10:23 28.44611 -14.81025 33023 ft 511 kts 54°
2026-05-04 10:23 28.46579 -14.77692 33397 ft 511 kts 53°
2026-05-04 10:25 28.60336 -14.54349 36081 ft 507 kts 53°
2026-05-04 10:25 28.64285 -14.47629 36076 ft 506 kts 53°
2026-05-04 10:26 28.68216 -14.40926 36077 ft 504 kts 53°
2026-05-04 10:26 28.72150 -14.34205 36076 ft 506 kts 53°
2026-05-04 10:27 28.76054 -14.27530 36080 ft 505 kts 53°
2026-05-04 10:27 28.79950 -14.20855 36082 ft 506 kts 53°
2026-05-04 10:28 28.83850 -14.14160 36083 ft 506 kts 54°
2026-05-04 10:28 28.87718 -14.07509 36083 ft 505 kts 53°
2026-05-04 10:29 28.91589 -14.00842 36089 ft 504 kts 53°
2026-05-04 10:29 28.95457 -13.94174 36093 ft 503 kts 53°
2026-05-04 10:30 28.99309 -13.87524 36094 ft 503 kts 53°
2026-05-04 10:30 29.03171 -13.80843 36097 ft 505 kts 53°
2026-05-04 10:31 29.07035 -13.74144 36100 ft 503 kts 53°
2026-05-04 10:32 29.20492 -13.50742 36090 ft 504 kts 53°
2026-05-04 10:33 29.24319 -13.44060 36087 ft 503 kts 53°
2026-05-04 10:33 29.28163 -13.37342 36086 ft 503 kts 53°
2026-05-04 10:34 29.31987 -13.30650 36084 ft 503 kts 54°
2026-05-04 10:34 29.35808 -13.23951 36080 ft 502 kts 53°
2026-05-04 10:35 29.39622 -13.17251 36081 ft 502 kts 54°
2026-05-04 10:35 29.43420 -13.10567 36080 ft 501 kts 54°
2026-05-04 10:36 29.47214 -13.03878 36079 ft 501 kts 54°
2026-05-04 10:36 29.51016 -12.97171 36082 ft 501 kts 54°
2026-05-04 10:37 29.54804 -12.90478 36079 ft 501 kts 54°
2026-05-04 10:37 29.58589 -12.83774 36079 ft 501 kts 54°
2026-05-04 10:39 29.71803 -12.60281 36077 ft 501 kts 54°
2026-05-04 10:40 29.75616 -12.53563 36080 ft 500 kts 52°
2026-05-04 10:40 29.79505 -12.46987 36077 ft 498 kts 51°
2026-05-04 10:41 29.83431 -12.40415 36078 ft 499 kts 52°
2026-05-04 10:41 29.87351 -12.33826 36073 ft 499 kts 52°
2026-05-04 10:42 29.91244 -12.27241 36075 ft 497 kts 52°
2026-05-04 10:42 29.95141 -12.20622 36074 ft 498 kts 52°
2026-05-04 10:43 29.99030 -12.14025 36077 ft 499 kts 52°
2026-05-04 10:44 30.15514 -11.94060 36083 ft 490 kts 38°
2026-05-04 10:45 30.17985 -11.91365 36092 ft 490 kts 38°
2026-05-04 10:45 30.22893 -11.85943 36088 ft 489 kts 38°
2026-05-04 10:46 30.27784 -11.80476 36085 ft 489 kts 39°
2026-05-04 10:46 30.32651 -11.75004 36081 ft 489 kts 39°
2026-05-04 10:47 30.37510 -11.69522 36081 ft 487 kts 39°
2026-05-04 10:47 30.42359 -11.64044 36077 ft 489 kts 39°
2026-05-04 10:49 30.61798 -11.42008 36065 ft 486 kts 39°
2026-05-04 10:50 30.66635 -11.36509 36067 ft 488 kts 39°
2026-05-04 10:52 30.85936 -11.14471 36057 ft 487 kts 39°
2026-05-04 10:52 30.90729 -11.08979 36053 ft 485 kts 40°
2026-05-04 10:54 31.09905 -10.86922 36054 ft 483 kts 40°
2026-05-04 10:56 31.28966 -10.64860 36059 ft 483 kts 40°
2026-05-04 10:57 31.33713 -10.59347 36058 ft 482 kts 40°
2026-05-04 10:57 31.38480 -10.53802 36046 ft 484 kts 40°
2026-05-04 10:58 31.43218 -10.48278 36056 ft 482 kts 40°
2026-05-04 10:58 31.47968 -10.42737 36058 ft 481 kts 40°
2026-05-04 10:59 31.52694 -10.37216 36057 ft 482 kts 40°
2026-05-04 10:59 31.57454 -10.31644 36064 ft 479 kts 41°
2026-05-04 11:00 31.62177 -10.26109 36063 ft 480 kts 40°
2026-05-04 11:02 31.80984 -10.03979 36064 ft 479 kts 40°
2026-05-04 11:05 32.16137 -9.62255 36068 ft 479 kts 41°
2026-05-04 11:06 32.20815 -9.56665 36073 ft 479 kts 41°
2026-05-04 11:06 32.25463 -9.51101 36078 ft 478 kts 41°
2026-05-04 11:10 32.58225 -9.11659 36071 ft 481 kts 41°
2026-05-04 11:12 32.74602 -8.91771 35790 ft 480 kts 41°
2026-05-04 11:12 32.76919 -8.88949 36040 ft 477 kts 41°
2026-05-04 11:12 32.81605 -8.83240 36076 ft 486 kts 41°
2026-05-04 11:13 32.86341 -8.77454 36080 ft 483 kts 41°
2026-05-04 11:13 32.91027 -8.71716 36080 ft 484 kts 41°